Preview of NWS' New Version of Forecast
This preview is not operational and should not be used for support decisions.
Latest weather observations around

Atlanta, Fulton County Airport-Brown Field (KFTY)

Using English Units (Switch to International System of Units)
Date/ Time (EDT) Wind (mph) Vis. (mi) Weather Sky Cond. Temp (°F) Rel. Humidity Wind Chill (°F) Heat Index (°F) Pressure Precip. (in)
Air Dwpt 6 hour Altimeter (inHg) Sea level (inHg) 1 hr 3 hr 6 hr
Max Min
Sep 19 18:53 ENE 9 10 Clear CLR 80 56     44%   80 30.15 30.12      
Sep 19 17:53 ENE 10 10 Clear CLR 82 56     41%   82 30.16 30.13      
Sep 19 16:53 E 6 10 Clear CLR 81 55     41%   81 30.16 30.13      
Sep 19 15:53 SE 9 10 Clear CLR 81 55     41%   81 30.17 30.14      
Sep 19 14:53 ESE 7 10 Clear CLR 80 54     41%   80 30.18 30.15      
Sep 19 13:53 E 8 10 Clear CLR 79 54     42%   79 30.2 30.17      
Sep 19 12:53 SE 9 10 Clear CLR 77 54     45%   77 30.22 30.19      
Sep 19 11:53 ESE 9 10 Partly Cloudy SCT050 76 54     47%   75 30.23 30.2      
Sep 19 10:53 ESE 10 10 Cloudy OVC050 75 55     50%   75 30.22 30.2      
Sep 19 09:53 6 10 Cloudy OVC050 72 57     59%   72 30.22 30.19      
Sep 19 08:53 E 9 10 Cloudy OVC050 71 58     63%   71 30.2 30.18      
Sep 19 07:53 E 6 10 Partly Cloudy SCT080 70 57     63%     30.19 30.16      
Sep 19 06:53 E 7 10 Partly Cloudy FEW046 SCT060 71 57     61%   71 30.16 30.14      
Sep 19 05:53 E 5 10 Cloudy OVC045 72 57     59%   72 30.15 30.12      
Sep 19 04:53 E 5 10 Mostly Cloudy BKN044 71 57     61%   71 30.14 30.11      
Sep 19 03:53 E 3 10 Partly Cloudy SCT050 72 56     57%   72 30.13 30.1      
Sep 19 02:53 E 5 10 Cloudy OVC045 73 56     55%   73 30.13 30.1      
Sep 19 01:53 E 5 10 Cloudy OVC040 73 57     57%   73 30.14 30.1      
Sep 19 00:53 E 3 10 Cloudy OVC035 72 58     61%   72 30.13 30.1      
Sep 18 23:53 E 6 10 Clear CLR 73 58     59%   73 30.13 30.1      
Sep 18 22:53 ENE 8 10 Clear CLR 74 59     60%   74 30.13 30.1      
Sep 18 21:53 ENE 8 10 Clear CLR 75 63     66%   75 30.1 30.08      
Sep 18 20:53 E 9 10 Clear CLR 77 64     64%   77 30.08 30.05      
Sep 18 19:53 E 10 10 Clear CLR 79 65     62%   80 30.06 30.03      
Sep 18 18:53 ENE 15 10 Clear CLR 81 66     61%   83 30.05 30.02      
Sep 18 17:53 ENE 15 10 Mostly Clear FEW035 83 67     59%   86 30.04 30.01      
Sep 18 16:53 ENE 14 10 Mostly Clear FEW037 85 67     55%   88 30.04 30.01      
Sep 18 15:53 ENE 14 10 Mostly Cloudy SCT038 BKN046 BKN055 86 68     55%   89 30.04 30      
Sep 18 14:53 ENE 13 10 Mostly Cloudy SCT038 SCT047 BKN055 85 68     57%   88 30.05 30.01      
Sep 18 13:53 E 9 10 Mostly Cloudy BKN040 84 67     57%   87 30.05 30.02      
Sep 18 12:53 E 10 10 Mostly Cloudy BKN037 BKN044 84 66     55%   86 30.06 30.02      
Notice The following observation data may not be complete
Sep 18 11:53   10 Clear CLR          %              
Sep 18 09:53 E 11 10 Clear CLR 78 64     62%   79 30.05 30.02      
Sep 18 08:53 ENE 9 10 Clear CLR 76 65     69%   76 30.04 30.01      
Sep 18 07:53 ENE 7 10 Clear CLR 73 67     81%   74 30.02 29.99      
Sep 18 06:53 NE 6 10 Clear CLR 73 67     81%   74 30 29.97      
Sep 18 05:53 NNE 6 10 Clear CLR 72 67     84%   73 29.98 29.94      
Sep 18 04:53 Calm 10 Clear CLR 71 67     87%   72 29.97 29.94      
Sep 18 03:53 Calm 10 Clear CLR 72 68     87%   73 29.97 29.94      
Sep 18 02:53 Calm 10 Clear CLR 73 68     84%   74 29.97 29.93      
Sep 18 01:53 Calm 10 Clear CLR 77 69     77%   78 29.98 29.94 0   0
Sep 18 00:53 Calm 10 Cloudy OVC090 78 69     74%   79 29.98 29.94      
Sep 17 23:53 Calm 10 Partly Cloudy SCT075 76 69     79%   77 29.98 29.94      
Sep 17 22:53 Calm 10 Clear   77 68     74%   78 29.98 29.94      
Sep 17 21:53 Calm 10 Mostly Cloudy SCT080 BKN100 82 66     58%   84 29.97 29.93      
Sep 17 21:35 Calm 10 Mostly Cloudy BKN100 84 64     51%   85 29.96        
Sep 17 21:20 Calm 10 Cloudy OVC095 84 64     51%   85 29.95        
Sep 17 20:53 6 10 Cloudy OVC090 86 65     50%   88 29.95 29.92      
Sep 17 19:53 Calm 10 Partly Cloudy SCT090 87 66     50%   89 29.94 29.91      
Sep 17 18:53 NW 3 10 Mostly Clear FEW080 89 65     45%   91 29.94 29.91      
Sep 17 17:53 NW 6 10 Clear CLR 94 62     35%   95 29.94 29.91      
Sep 17 16:53 NW 10 10 Mostly Clear FEW080 95 63     35%   96 29.94 29.91      
Sep 17 15:53 WNW 10 10 Clear CLR 95 63     35%   96 29.96 29.93      
Sep 17 14:53 WNW 6 10 Clear CLR 94 63     36%   95 29.98 29.94      
Sep 17 13:53 7 10 Clear CLR 93 64     38%   95 30 29.97      
Sep 17 12:53 3 10 Clear CLR 92 64     40%   94 30.02 29.99      
Sep 17 11:53 Calm 10 Clear CLR 90 64     42%   91 30.04 30.01      
Sep 17 10:53 Calm 10 Clear CLR 85 65     51%   87 30.05 30.01      
Sep 17 09:53 Calm 10 Clear CLR 80 65     60%   82 30.04 30.01      
Sep 17 08:53 Calm 10 Clear CLR 75 66     74%   76 30.03 30      
Sep 17 07:53 Calm 10 Clear CLR 69 64     84%     30.03 30      
Sep 17 06:53 Calm 10 Clear CLR 67 64     90%     30.01 29.98      
Sep 17 05:53 Calm 10 Clear CLR 67 64     90%     30 29.96      
Sep 17 04:53 Calm 10 Clear CLR 68 65     90%     29.99 29.96      
Sep 17 03:53 Calm 10 Clear CLR 68 65     90%     29.99 29.96      
Sep 17 02:53 Calm 10 Clear CLR 69 65     87%     30 29.97      
Sep 17 01:53 Calm 10 Clear CLR 70 67     90%     30.01 29.98      
Sep 17 00:53 Calm 10 Clear CLR 71 66     84%   72 30.02 29.98      
Sep 16 23:53 Calm 10 Clear CLR 72 67     84%   73 30.02 29.99      
Sep 16 22:53 Calm 10 Clear CLR 76 67     74%   77 30.02 29.98      
Sep 16 21:53 Calm 10 Clear CLR 76 68     76%   77 30.02 29.98      
Sep 16 19:53 Calm 10 Clear CLR 83 66     57%   85 29.99 29.96      
May 15 06:53 E 3 10 Mostly Clear FEW065 71 66     84%   72 30.03 29.99      
May 15 02:53 Calm 10 Clear CLR 75 64     69%   75 30 29.96      
May 15 00:53 3 10 Clear CLR 76 65     69%   76 30.01 29.97      
May 13 23:53 Calm 10 Clear CLR 69 65     87%     30.07 30.04      
May 12 16:53 NNW 8 10 Clear   89 59     36%   88 30.09 30.06      
May 12 10:53 NW 5 10 Clear CLR 82 62     51%   83 30.19 30.16      
May 12 00:53 Calm 10 Clear CLR 67 66     97%     30.12 30.09      
May 11 22:53 Calm 10 Clear CLR 71 67     87%   72 30.11 30.09      
Jun 12 03:53 Calm 10 Mostly Clear FEW029 74 71     91%   75 30.15 30.12      
Jun 12 02:53 SSE 5 10 Clear CLR 75 71     88%   76 30.16 30.13      
Jun 11 04:53 Calm 10 Partly Cloudy SCT065 64 63     96%     30.14 30.11      
Jun 09 03:53 Calm 10 Clear CLR 63 63     100%     29.9 29.87      
Jun 07 14:53 ENE 10 10 Mostly Cloudy FEW046 BKN060 80 61     52%   81 29.82 29.79      
Jun 07 12:53 ENE 7 10 Mostly Cloudy FEW047 BKN070 77 58     52%   77 29.83 29.8      
Jun 06 06:53 Calm 10 Partly Cloudy FEW080 SCT110 71 71     100%   73 29.81 29.79